Tracking 29777 objects as of 5-Oct-2024
HD Live streaming from Space Station
objects crossing your sky now

FENGYUN 1C DEB

Track FENGYUN 1C DEB now!
10-day predictions


NORAD ID: 33673
Int'l Code: 1999-025DFJ
Perigee: 844.6 km
Apogee: 997.5 km
Inclination: 99.4 °
Period: 103.3 minutes
Semi major axis: 7292 km
RCS: 0.0036 m2 (small)
Launch date: May 10, 1999
Source: People's Republic of China (PRC)
Launch site: Taiyaun Space Center, China (TSC)

Note: This is SATELLITE DEBRIS
Your satellite tracking list
Your tracking list is empty




NASA's NSSDC Master Catalog

Two Line Element Set (TLE):
1 33673U 99025DFJ 24277.84022571  .00002884  00000-0  21095-2 0  9999
2 33673  99.3891 312.0963 0104825 321.9475 213.4100 13.94203660838383
Source of the keplerian elements: AFSPC